Wind_Speed
22 23 23 24 24 24 24 24 24 24 24 24 24 23 22 22 22 22 22 21 21 20 20 21 23 23 23 24 25 26 27 27 27 28 28 28 27 27 28 30 29 27 28 28 28 28 27 27 26 26 26 24 24 24 24 23 23 23 22 20 19 19 19
23 23 24 24 25 25 25 25 25 25 25 25 24 23 23 23 23 23 23 23 22 22 22 22 23 23 24 25 26 26 27 28 29 29 28 28 28 28 28 30 31 27 26 28 30 30 28 28 27 27 27 26 25 25 25 25 25 24 23 22 20 20 20
24 24 24 25 25 25 25 25 26 26 26 25 24 23 23 23 23 23 24 24 23 24 24 24 24 24 24 25 26 27 27 28 29 30 29 29 29 28 28 31 33 29 25 24 28 32 31 29 28 28 28 27 27 28 27 26 26 25 24 23 21 20 20
24 25 25 25 25 26 26 26 27 27 26 25 24 23 23 23 23 24 23 24 23 23 24 25 25 26 25 25 27 28 29 28 28 30 31 30 29 29 28 30 33 30 25 22 25 33 34 31 30 30 30 30 30 29 27 25 25 24 23 23 23 22 21
25 25 26 26 26 26 27 27 28 27 26 25 24 23 23 23 23 24 24 24 23 23 23 24 25 25 26 26 27 29 30 30 29 29 31 31 29 29 28 28 31 31 25 21 25 31 35 33 32 32 32 32 31 30 28 26 25 25 25 25 24 24 23
25 26 26 26 26 27 28 28 28 28 27 26 25 24 23 23 23 23 24 23 23 23 23 23 24 25 25 25 26 29 31 30 29 29 31 31 29 29 28 28 29 31 28 26 27 30 35 35 33 32 33 33 31 31 30 27 26 26 26 25 25 25 24
25 26 26 26 27 28 28 29 29 29 28 27 26 25 24 24 23 23 23 23 23 23 24 24 24 24 25 25 26 28 31 31 29 29 31 32 30 29 28 27 28 31 31 31 30 30 35 36 34 34 35 34 33 32 31 29 27 27 26 26 26 26 25
25 26 27 27 28 28 29 30 30 30 29 28 27 26 25 24 24 24 23 22 22 23 24 24 24 24 25 25 26 27 29 31 30 29 30 31 31 29 28 27 28 29 30 31 31 31 34 35 34 36 36 36 34 33 32 30 28 28 28 28 27 26 26
25 26 27 28 29 30 30 30 31 31 30 29 28 27 26 25 24 24 24 23 23 24 25 25 25 25 25 26 26 27 28 30 30 29 29 30 30 30 29 28 29 30 31 31 31 32 33 34 35 36 36 36 36 35 33 31 29 29 30 29 27 27 27
26 27 28 30 31 31 31 31 31 32 31 30 29 28 27 26 25 24 24 25 26 26 26 26 26 26 25 26 27 27 27 29 30 29 29 29 29 29 30 30 30 30 31 31 31 32 33 34 34 35 36 36 36 36 34 32 30 31 31 30 29 29 29
28 29 30 32 33 33 33 32 32 32 32 31 30 29 28 28 27 26 25 26 27 28 27 27 27 27 26 26 27 27 27 28 29 29 28 29 29 28 30 31 30 29 28 29 31 31 33 35 35 36 36 36 36 35 34 33 33 33 33 31 30 31 31
29 30 31 33 34 34 34 34 34 34 33 33 32 31 30 29 29 28 28 28 28 28 28 27 27 27 27 26 26 27 27 28 28 29 28 28 29 28 29 32 32 29 28 28 30 32 34 35 35 35 35 36 36 36 36 36 36 35 35 32 31 32 32
30 31 32 33 34 35 35 35 35 35 34 34 33 33 32 32 31 30 29 29 29 28 28 28 28 28 28 28 27 27 27 27 28 29 28 28 28 29 29 32 33 31 30 30 30 33 35 35 34 35 36 36 37 38 38 38 37 37 37 34 33 33 32
31 32 33 34 35 35 36 36 36 35 35 35 35 34 34 34 33 33 32 31 30 29 29 29 29 29 28 29 29 29 28 28 28 29 29 28 28 29 29 31 33 33 33 33 32 32 34 36 35 36 37 38 39 40 40 39 38 39 39 35 33 34 34
33 34 34 35 35 36 36 37 37 37 36 36 36 35 35 35 35 35 35 34 32 31 30 30 30 29 28 28 29 30 30 30 29 29 29 29 28 29 30 30 33 35 35 35 35 33 33 35 36 38 37 36 38 42 41 40 40 40 40 37 35 36 35
34 34 35 35 36 36 37 37 38 38 38 37 37 37 37 36 37 37 37 36 35 33 32 32 31 30 29 28 29 30 31 31 30 29 29 30 29 29 30 30 32 34 35 35 35 35 35 34 35 38 38 35 37 41 41 40 40 41 40 39 37 37 35
35 35 35 36 36 37 37 38 38 38 39 39 38 38 38 38 38 38 38 39 38 37 35 35 33 32 30 29 29 30 31 32 32 31 30 31 30 29 29 30 31 33 35 35 34 35 36 35 34 36 38 38 37 39 40 40 40 41 42 41 39 37 37
35 36 36 37 37 38 38 38 39 39 40 40 40 40 40 40 40 40 40 40 40 39 38 38 37 35 33 31 30 30 31 32 32 33 32 32 32 31 29 29 31 33 34 34 35 35 35 36 36 35 37 40 41 39 39 40 39 41 42 41 40 39 38
36 37 37 38 38 38 38 39 39 40 40 41 41 41 41 41 41 41 41 41 41 41 41 41 39 37 35 34 32 31 32 32 33 33 33 33 33 33 31 30 30 32 33 34 35 36 36 36 37 35 35 38 42 42 41 40 40 41 42 41 40 40 39
37 38 38 38 38 38 39 39 40 40 41 41 42 42 43 43 43 43 42 43 43 43 43 43 41 40 38 36 35 33 33 33 34 34 34 34 35 35 34 32 31 32 33 34 34 36 37 37 37 35 33 34 38 42 41 40 41 43 43 42 41 40 41
38 38 38 38 39 39 39 40 40 41 42 42 43 43 43 43 44 44 44 44 45 45 45 44 43 42 41 39 38 36 35 34 35 35 35 35 36 36 36 35 33 32 33 33 33 35 37 38 37 36 33 33 35 40 42 41 41 43 43 42 41 40 42
38 38 38 38 39 39 40 40 41 42 42 43 43 44 44 44 44 45 45 46 46 46 46 46 45 44 43 42 41 40 38 36 36 36 36 36 36 37 38 37 36 34 33 33 33 34 36 38 38 37 36 36 36 39 42 43 42 42 42 41 41 41 41
38 38 38 38 39 39 40 40 41 42 42 43 43 44 45 45 46 46 47 47 48 48 48 48 48 47 46 45 44 42 41 39 37 37 37 37 37 38 39 39 38 37 36 34 32 33 35 38 38 38 39 39 38 38 41 44 43 43 43 43 42 42 42
37 38 38 38 38 39 39 40 41 42 43 43 44 45 46 47 47 48 49 49 49 49 49 49 49 49 48 48 47 46 44 42 40 38 37 38 38 38 39 40 40 39 38 37 34 32 34 36 37 38 40 41 40 37 37 41 44 44 44 43 43 43 44
38 38 38 38 38 39 39 40 41 42 43 44 45 46 47 47 48 49 50 50 51 51 51 52 51 51 51 50 50 49 47 46 44 41 39 38 39 39 39 40 41 40 39 39 37 34 34 35 36 38 40 42 42 40 37 38 41 43 44 45 45 45 46
38 38 38 39 39 40 41 42 43 44 45 46 47 47 48 49 50 51 51 52 53 53 54 54 54 54 54 53 53 52 51 49 48 46 43 40 39 40 40 40 40 41 41 40 40 38 35 35 35 36 39 41 42 41 39 40 41 41 41 44 47 47 48
38 39 39 40 41 41 42 43 44 44 45 46 47 48 49 50 50 51 52 53 54 54 55 55 55 55 55 55 55 54 54 53 51 50 48 44 41 41 42 42 41 40 41 41 42 40 38 36 35 34 36 39 41 41 41 42 42 42 41 41 45 48 49
38 39 39 40 41 41 42 43 44 45 46 47 48 49 50 51 52 53 54 55 56 56 57 57 57 57 57 57 57 56 55 55 54 53 52 50 46 43 42 43 43 41 40 41 43 42 40 38 36 34 34 35 38 39 41 41 42 43 43 42 43 46 48
37 38 38 39 40 41 42 43 44 45 47 48 49 50 51 52 53 54 56 57 58 59 60 60 61 61 61 61 60 60 59 57 56 55 54 53 51 48 44 43 44 44 41 41 42 43 43 41 38 35 34 34 35 37 38 39 41 43 45 44 43 44 46
37 37 38 39 40 42 42 43 44 45 46 48 49 50 52 53 54 55 56 57 58 59 60 61 62 62 63 63 64 64 63 62 60 58 56 55 53 52 50 46 45 45 44 42 41 43 44 43 40 37 35 35 35 36 36 37 39 41 44 45 44 43 43
36 37 38 39 40 41 41 42 43 44 46 47 48 50 51 52 53 54 55 56 56 57 58 59 60 60 61 62 62 63 64 65 64 63 61 58 55 54 53 51 47 46 46 44 42 42 43 43 42 40 38 36 36 35 35 36 37 39 42 44 44 43 42
36 37 37 38 38 39 40 41 42 44 45 46 48 49 50 51 52 52 53 54 55 56 57 58 59 59 60 60 61 61 62 63 64 64 64 62 59 56 54 54 51 49 47 47 45 43 42 42 43 42 41 39 37 35 34 35 35 36 39 41 42 41 41
35 35 35 36 37 38 39 40 42 43 44 45 46 47 48 49 50 51 52 53 54 55 56 57 58 59 60 60 60 60 61 61 62 63 63 63 62 59 56 54 53 51 50 49 48 45 43 42 42 43 43 41 38 36 34 34 34 34 36 38 39 38 37
32 33 34 35 36 38 39 40 41 42 43 44 45 46 47 48 50 51 52 53 54 54 55 57 58 58 59 59 59 59 59 60 60 61 62 62 61 60 58 56 53 52 51 51 50 48 45 43 41 42 43 42 39 37 35 34 34 35 34 35 36 35 35
31 32 34 35 36 37 38 39 40 41 42 43 44 45 46 47 48 49 50 51 53 54 55 56 57 57 57 57 57 57 57 57 57 58 59 59 59 58 57 56 54 52 51 52 52 50 47 45 43 41 42 42 40 39 37 35 35 35 34 33 33 33 33
32 33 34 35 36 37 37 38 39 39 40 41 42 43 44 45 46 46 48 50 52 54 55 56 56 56 55 54 54 53 52 52 52 52 54 55 56 56 55 54 53 52 51 52 54 52 49 47 44 42 41 41 40 38 37 36 35 35 34 33 32 32 33
32 33 34 34 35 35 36 37 37 38 39 40 41 42 42 43 43 44 46 48 51 54 56 57 56 54 52 51 50 49 48 47 46 46 47 49 51 52 52 51 52 51 50 51 53 53 50 48 46 43 41 40 39 38 37 36 34 33 33 33 33 32 31
Wind_Direction
289 288 290 292 294 296 296 296 296 296 296 297 299 302 305 307 308 309 310 312 313 313 311 308 306 306 305 303 300 296 293 291 288 285 284 283 285 288 284 282 283 269 255 253 248 241 237 234 235 236 235 233 232 231 227 226 228 230 231 230 229 230 230
288 288 289 291 293 294 294 295 295 296 296 297 299 301 304 307 310 312 313 315 315 316 316 315 313 310 307 305 302 299 296 291 287 285 284 281 279 283 283 283 284 268 251 252 247 240 238 234 234 236 234 233 234 233 229 226 225 227 230 230 229 230 230
287 287 289 291 292 293 293 294 294 294 295 296 298 301 303 307 310 312 313 314 315 316 317 317 317 314 310 305 301 297 294 291 287 284 284 282 277 278 279 281 283 266 249 255 248 237 237 234 232 234 233 232 233 233 231 229 227 226 227 230 230 231 232
286 286 288 290 291 292 293 293 293 292 293 295 297 301 304 307 309 312 312 313 314 315 316 316 316 316 313 307 301 297 294 292 290 284 281 281 278 276 275 280 283 265 248 260 254 238 235 234 232 233 232 230 231 233 232 231 231 228 226 228 229 230 232
285 286 287 289 290 292 293 293 292 292 293 294 297 300 303 306 309 311 312 312 313 314 315 316 316 316 317 312 304 299 296 294 295 290 282 278 276 274 271 273 279 271 259 265 263 243 235 234 234 233 234 232 231 232 232 231 231 229 227 226 227 228 231
285 286 288 289 290 292 294 294 294 294 294 294 296 298 301 304 307 309 310 311 312 313 314 315 316 317 320 319 311 303 299 297 297 294 286 281 276 272 268 267 272 275 270 270 267 249 234 233 233 232 235 234 231 232 231 229 229 230 228 227 227 229 230
285 286 287 288 290 293 294 295 295 294 294 294 295 297 300 304 306 307 308 308 309 311 312 313 315 317 321 323 319 310 303 299 296 294 289 284 280 274 269 267 269 272 270 270 268 250 233 232 232 232 234 233 232 233 232 229 228 229 229 227 226 228 230
285 286 287 288 290 292 293 294 295 294 294 294 295 297 299 302 304 305 305 305 306 306 308 310 313 317 319 321 321 317 309 302 296 292 289 286 283 278 272 267 265 266 266 266 263 249 234 232 233 232 234 234 234 236 234 231 229 228 229 228 227 227 229
287 287 288 290 291 292 293 293 293 293 293 293 293 295 296 299 301 303 303 302 302 302 304 308 312 315 316 316 317 317 314 309 300 292 289 287 284 279 275 269 263 264 265 262 257 248 237 232 232 232 234 235 236 238 238 235 232 230 230 229 227 228 229
290 290 290 290 291 292 292 292 292 292 292 291 291 293 295 298 299 300 300 300 301 302 304 307 310 311 311 311 312 315 316 314 308 298 290 288 285 279 275 272 266 266 266 260 253 247 237 232 233 234 236 236 236 236 238 236 233 232 232 229 227 227 229
290 291 290 290 290 291 291 291 291 290 291 291 291 292 294 296 298 298 299 299 300 302 305 307 308 308 308 308 309 312 314 315 312 305 294 289 287 280 275 273 270 267 266 260 252 246 239 234 234 236 238 239 237 235 236 237 234 233 232 229 226 227 229
288 290 289 289 288 288 289 290 290 289 290 290 290 291 293 295 296 297 298 299 300 301 304 306 306 306 306 306 307 309 311 313 313 309 300 291 287 283 276 273 271 268 266 263 256 248 243 239 237 238 239 240 239 235 233 234 234 233 232 229 226 226 227
288 289 289 288 287 286 287 288 288 288 288 289 289 290 292 294 295 296 297 298 298 300 301 303 303 304 304 305 305 306 308 310 311 310 305 294 286 282 277 273 272 269 265 263 259 252 247 245 242 241 242 242 240 237 234 234 233 232 233 230 226 226 226
288 289 289 287 286 286 286 287 287 287 287 288 289 290 292 294 294 295 295 295 296 297 298 299 299 300 301 303 303 303 304 306 307 308 307 300 288 281 278 274 272 271 266 262 261 256 250 247 245 245 248 246 240 237 235 235 233 232 233 232 228 226 227
289 289 289 287 286 286 286 287 287 287 287 287 289 290 291 293 293 293 293 293 294 295 295 296 296 296 297 298 299 300 301 302 303 304 306 304 295 284 278 275 272 271 269 265 264 262 257 252 248 247 252 248 239 236 235 234 234 233 234 234 230 228 228
290 289 288 287 286 286 286 286 286 286 287 287 288 289 291 292 292 292 292 292 293 294 294 294 293 293 293 294 295 296 297 299 300 301 302 302 299 291 282 276 273 271 268 266 265 264 262 259 253 249 251 248 238 235 234 233 234 233 234 234 231 230 230
289 288 287 286 286 286 286 287 287 287 287 287 288 289 290 291 291 291 291 291 292 293 294 294 293 292 292 292 292 293 294 296 297 297 298 298 298 296 288 279 273 271 268 265 264 265 264 262 258 253 250 246 239 236 235 235 236 235 234 233 230 230 232
289 288 287 286 286 287 287 288 288 288 287 287 288 289 289 290 290 290 290 290 292 293 294 294 294 294 293 292 290 290 290 292 293 294 295 295 295 295 292 283 274 271 269 266 264 265 265 263 261 258 252 245 239 238 238 237 238 238 236 233 230 230 233
288 287 287 286 286 287 287 287 287 287 287 287 287 287 288 288 288 289 289 290 291 292 294 294 294 294 294 293 291 289 287 288 289 291 291 292 292 292 292 287 278 271 268 265 264 264 264 262 260 261 258 248 238 236 238 238 238 240 239 236 232 231 233
288 288 287 287 286 286 286 286 286 286 286 286 286 287 288 288 288 288 288 289 290 291 293 293 293 293 293 293 292 290 288 286 286 287 287 288 289 290 290 289 284 276 269 265 264 264 264 262 259 259 261 255 243 237 239 239 239 242 241 237 235 233 233
288 287 287 287 286 286 286 286 286 287 287 287 288 288 289 289 289 289 289 289 290 291 291 291 291 292 292 292 292 291 289 287 285 284 284 284 285 286 287 288 287 283 276 269 265 265 265 263 260 257 257 259 253 244 241 240 241 243 241 236 235 236 237
288 287 287 287 287 288 288 288 289 289 289 289 289 290 290 290 290 290 290 290 290 290 290 290 290 290 290 290 291 291 290 288 286 283 282 281 281 282 284 285 285 284 282 276 267 264 264 263 261 257 253 253 255 250 243 241 241 242 241 239 238 241 243
288 288 288 288 289 290 290 290 291 291 291 291 291 291 291 291 291 290 290 290 290 289 289 289 289 289 289 289 289 290 289 287 285 283 281 279 278 278 280 281 282 282 282 281 274 265 262 261 260 258 254 251 253 252 245 241 241 241 241 242 242 245 248
289 289 289 290 290 291 291 291 292 292 292 292 292 292 292 291 291 291 290 290 290 289 289 289 289 289 289 289 289 289 288 287 284 281 278 277 276 276 276 277 279 279 279 280 278 271 264 260 258 256 254 252 253 254 248 242 241 241 240 241 242 244 248
291 291 291 291 291 292 292 292 292 293 293 293 292 292 292 292 291 291 291 290 290 290 289 289 289 288 288 288 288 288 288 287 285 282 277 274 274 274 273 274 275 276 276 276 277 274 268 263 258 254 253 252 251 252 250 244 242 241 240 241 242 244 246
292 293 293 293 293 294 294 294 294 294 294 294 294 294 293 293 292 292 292 291 291 290 290 289 289 288 287 286 286 286 286 285 285 283 280 274 271 271 271 271 272 273 274 274 275 274 270 265 260 255 252 251 251 251 251 247 243 243 242 240 240 242 243
294 294 295 295 295 295 295 295 296 296 296 296 296 295 295 295 294 294 293 292 292 291 290 290 289 288 287 286 285 284 284 283 282 282 281 278 273 268 268 268 269 270 271 271 271 272 271 268 264 259 254 252 251 250 250 248 245 244 244 242 240 240 241
296 297 297 298 298 298 298 298 298 298 298 297 297 297 296 296 295 294 294 293 292 291 290 289 288 287 286 285 284 283 282 281 280 279 279 278 275 270 266 265 266 267 268 268 268 269 270 268 266 261 256 253 251 249 248 248 247 246 245 244 243 242 242
298 299 300 300 300 300 300 300 299 299 299 298 298 297 297 296 296 295 294 293 292 291 290 289 287 286 285 284 282 281 280 279 278 276 275 274 274 272 268 263 263 264 265 266 266 266 267 267 266 263 258 254 250 247 247 246 245 245 244 243 243 243 243
301 301 301 301 300 300 300 299 299 299 299 299 299 299 298 298 297 296 295 294 293 292 290 289 287 286 284 283 281 280 278 276 275 274 273 271 270 269 268 264 260 261 263 263 263 263 264 264 264 264 260 255 249 247 247 246 244 243 243 243 244 245 245
300 300 300 300 300 300 300 301 301 301 301 301 301 301 300 300 299 298 297 296 296 295 293 292 290 288 286 284 282 279 277 275 273 272 271 269 267 266 265 263 260 258 260 261 261 261 261 262 262 262 260 257 253 250 249 248 245 243 241 241 243 245 246
299 299 300 300 301 301 302 302 303 303 303 303 303 302 302 302 301 301 300 299 299 298 297 296 294 292 289 287 284 281 278 275 272 270 268 267 265 263 262 261 259 257 257 258 259 259 259 259 259 260 260 258 256 254 251 249 248 246 244 243 243 244 245
299 300 301 301 302 302 303 304 304 304 304 304 304 304 304 303 303 303 303 302 301 300 300 299 297 295 292 289 286 282 279 275 272 269 267 265 263 261 259 258 257 255 254 255 257 257 257 257 256 256 258 258 259 258 254 250 249 249 247 245 243 241 243
299 300 301 302 303 303 304 305 305 306 306 306 306 306 307 307 307 307 307 306 306 306 305 304 302 300 296 293 288 284 279 275 271 268 266 263 261 259 257 255 254 253 251 252 254 254 254 255 254 253 254 256 258 258 255 250 248 249 248 247 244 240 240
299 301 302 303 304 305 306 306 307 308 308 309 310 310 311 312 312 312 312 312 312 313 312 311 309 306 302 298 293 288 282 277 271 267 264 262 259 256 254 252 251 250 248 249 250 251 251 252 253 252 252 253 254 256 256 252 249 247 247 246 243 239 238
301 303 304 305 306 306 307 308 309 310 311 313 314 315 316 316 316 317 318 319 319 320 319 318 316 312 308 303 298 293 288 282 276 269 264 260 257 254 251 249 247 246 245 245 247 249 248 249 250 250 250 250 252 254 255 253 251 249 246 244 243 239 236
303 304 305 306 307 308 310 311 312 314 316 317 318 319 320 320 320 321 323 325 326 327 326 324 321 317 312 308 304 299 295 289 283 274 267 261 257 253 249 245 243 241 241 241 244 246 246 245 247 248 249 249 249 250 251 251 250 249 246 243 243 242 239
Height
5816 5815 5815 5814 5814 5814 5813 5812 5810 5809 5808 5808 5807 5807 5805 5804 5803 5802 5801 5800 5799 5798 5797 5796 5794 5792 5792 5790 5789 5787 5786 5785 5783 5781 5780 5779 5778 5778 5777 5776 5776 5776 5776 5775 5776 5776 5778 5779 5779 5781 5782 5783 5783 5784 5784 5785 5786 5786 5787 5788 5789 5790 5790
5813 5813 5812 5812 5811 5811 5810 5809 5808 5807 5805 5804 5804 5804 5803 5801 5800 5799 5798 5797 5796 5795 5794 5793 5791 5789 5788 5787 5785 5783 5782 5781 5780 5778 5777 5777 5775 5775 5774 5773 5773 5773 5772 5772 5772 5773 5774 5775 5776 5777 5778 5779 5780 5781 5782 5783 5783 5783 5784 5785 5786 5787 5788
5811 5810 5809 5809 5808 5808 5808 5807 5806 5805 5803 5802 5801 5801 5800 5799 5798 5797 5795 5794 5793 5791 5790 5789 5787 5786 5784 5783 5782 5780 5779 5778 5776 5775 5774 5773 5772 5771 5771 5770 5769 5769 5769 5768 5768 5769 5770 5771 5772 5773 5774 5776 5777 5777 5779 5780 5780 5781 5782 5783 5784 5784 5785
5808 5808 5807 5806 5806 5806 5805 5805 5804 5803 5801 5800 5799 5798 5797 5796 5795 5794 5793 5791 5790 5789 5787 5785 5784 5783 5781 5780 5778 5777 5776 5774 5773 5772 5770 5768 5768 5768 5767 5766 5766 5765 5764 5765 5765 5765 5766 5767 5768 5770 5771 5772 5773 5774 5776 5777 5777 5778 5779 5780 5781 5781 5782
5806 5805 5804 5804 5804 5803 5802 5802 5801 5800 5799 5798 5796 5795 5795 5793 5792 5791 5790 5788 5787 5786 5784 5783 5782 5780 5779 5777 5775 5774 5772 5771 5770 5768 5766 5765 5764 5764 5764 5764 5763 5762 5761 5762 5761 5761 5763 5764 5765 5767 5768 5769 5770 5772 5773 5774 5775 5776 5776 5777 5778 5779 5780
5803 5802 5802 5801 5800 5800 5799 5798 5797 5797 5796 5795 5794 5793 5792 5791 5790 5788 5787 5785 5784 5783 5782 5781 5779 5778 5776 5775 5773 5771 5769 5768 5767 5765 5763 5761 5761 5760 5759 5760 5760 5760 5759 5759 5758 5758 5759 5760 5762 5764 5765 5766 5768 5769 5770 5771 5772 5773 5774 5774 5775 5776 5777
5800 5799 5799 5798 5797 5797 5796 5795 5794 5794 5793 5792 5791 5790 5789 5788 5787 5785 5784 5783 5781 5780 5779 5778 5777 5775 5774 5772 5770 5768 5766 5764 5763 5762 5759 5758 5758 5757 5755 5755 5756 5756 5756 5755 5755 5754 5755 5756 5758 5760 5760 5762 5764 5765 5766 5768 5769 5770 5771 5771 5772 5772 5773
5797 5796 5796 5795 5794 5793 5792 5792 5791 5790 5790 5789 5788 5787 5786 5785 5784 5782 5781 5780 5779 5778 5777 5776 5774 5773 5771 5770 5768 5765 5763 5760 5759 5758 5756 5755 5755 5754 5753 5752 5752 5752 5752 5752 5751 5751 5751 5753 5754 5755 5756 5758 5760 5761 5763 5765 5766 5767 5767 5768 5769 5770 5771
5794 5793 5792 5792 5791 5790 5789 5788 5788 5787 5787 5786 5785 5784 5783 5782 5781 5779 5778 5777 5776 5775 5774 5773 5772 5771 5769 5766 5764 5762 5760 5758 5755 5754 5753 5752 5751 5751 5750 5749 5749 5749 5748 5748 5748 5747 5748 5750 5751 5751 5753 5755 5756 5758 5760 5761 5763 5764 5763 5764 5766 5767 5768
5791 5790 5789 5788 5787 5787 5786 5785 5784 5784 5783 5783 5782 5781 5779 5778 5778 5776 5775 5773 5772 5771 5770 5770 5769 5767 5765 5763 5761 5759 5757 5755 5752 5750 5749 5749 5748 5747 5747 5746 5745 5745 5745 5744 5744 5744 5745 5746 5747 5748 5749 5750 5752 5754 5755 5757 5759 5759 5759 5761 5763 5764 5765
5788 5787 5786 5785 5784 5783 5782 5782 5781 5780 5779 5779 5778 5777 5776 5775 5774 5773 5771 5770 5769 5767 5767 5766 5765 5763 5761 5759 5757 5755 5754 5752 5749 5747 5745 5745 5744 5743 5743 5742 5742 5742 5741 5741 5741 5741 5742 5743 5744 5744 5745 5746 5748 5750 5752 5753 5754 5755 5755 5758 5760 5761 5761
5785 5784 5782 5781 5781 5780 5779 5778 5777 5777 5776 5775 5774 5773 5772 5771 5770 5769 5767 5766 5765 5764 5763 5762 5761 5759 5757 5756 5754 5752 5750 5748 5746 5744 5742 5741 5740 5739 5739 5738 5738 5738 5738 5737 5737 5738 5738 5739 5740 5740 5741 5742 5744 5746 5747 5747 5749 5750 5752 5754 5756 5757 5758
5781 5780 5779 5778 5777 5776 5775 5774 5774 5773 5772 5771 5770 5769 5768 5767 5766 5765 5764 5763 5761 5760 5759 5758 5757 5755 5753 5752 5750 5748 5746 5745 5743 5741 5739 5737 5736 5735 5735 5734 5734 5734 5734 5734 5734 5734 5734 5735 5736 5737 5737 5738 5739 5741 5742 5743 5745 5746 5747 5750 5752 5753 5753
5778 5777 5776 5774 5773 5772 5771 5770 5770 5769 5768 5767 5766 5765 5764 5762 5761 5760 5760 5759 5758 5757 5755 5754 5753 5751 5750 5748 5746 5744 5743 5741 5740 5738 5736 5734 5732 5731 5731 5730 5730 5730 5730 5730 5730 5730 5730 5731 5732 5732 5733 5734 5735 5736 5737 5738 5741 5742 5743 5745 5747 5748 5749
5774 5773 5772 5771 5770 5769 5768 5766 5766 5765 5764 5763 5762 5761 5759 5758 5757 5756 5755 5754 5754 5753 5751 5750 5749 5748 5746 5744 5742 5740 5739 5737 5736 5735 5733 5731 5729 5728 5727 5727 5726 5725 5725 5725 5726 5726 5726 5726 5727 5728 5728 5729 5730 5731 5733 5734 5736 5737 5738 5741 5743 5743 5744
5770 5769 5768 5767 5766 5765 5764 5762 5761 5761 5760 5759 5758 5757 5755 5754 5753 5751 5750 5749 5749 5748 5747 5746 5745 5743 5742 5741 5739 5737 5735 5733 5732 5731 5730 5728 5726 5724 5723 5723 5722 5721 5721 5721 5721 5722 5722 5722 5723 5723 5723 5725 5725 5726 5728 5730 5731 5732 5733 5736 5737 5738 5741
5766 5765 5764 5763 5762 5761 5760 5758 5757 5756 5755 5754 5753 5752 5751 5750 5748 5747 5746 5744 5743 5743 5742 5741 5740 5739 5738 5736 5735 5733 5731 5729 5728 5727 5726 5724 5722 5721 5719 5718 5718 5717 5716 5717 5717 5717 5717 5718 5718 5718 5719 5720 5721 5722 5724 5725 5726 5727 5728 5730 5732 5733 5735
5762 5761 5760 5759 5758 5757 5755 5754 5753 5752 5751 5750 5749 5747 5746 5745 5744 5742 5741 5739 5738 5737 5736 5736 5735 5734 5733 5731 5730 5729 5727 5725 5724 5722 5721 5720 5719 5717 5716 5715 5714 5713 5712 5712 5712 5712 5712 5713 5713 5714 5714 5715 5716 5718 5719 5720 5722 5722 5723 5725 5727 5729 5730
5758 5757 5756 5755 5753 5752 5751 5750 5749 5747 5746 5745 5744 5742 5741 5740 5739 5737 5736 5735 5733 5732 5731 5730 5729 5729 5728 5726 5725 5724 5723 5721 5720 5718 5717 5716 5714 5713 5712 5711 5710 5709 5708 5707 5707 5707 5707 5708 5708 5709 5709 5709 5711 5713 5714 5716 5717 5718 5719 5721 5723 5724 5726
5754 5753 5752 5750 5749 5747 5746 5745 5744 5743 5741 5740 5739 5737 5736 5735 5733 5732 5731 5729 5728 5727 5726 5725 5724 5723 5722 5721 5720 5719 5718 5717 5716 5714 5713 5711 5710 5708 5707 5707 5706 5704 5703 5703 5703 5703 5702 5703 5704 5704 5704 5704 5706 5707 5708 5710 5712 5713 5714 5716 5717 5719 5720
5750 5749 5747 5746 5744 5743 5741 5740 5739 5738 5736 5735 5734 5732 5731 5729 5728 5727 5725 5724 5723 5721 5720 5719 5718 5717 5717 5716 5715 5714 5713 5712 5711 5710 5708 5707 5705 5704 5703 5702 5701 5700 5698 5697 5698 5698 5697 5697 5698 5699 5700 5700 5701 5702 5703 5704 5706 5707 5708 5710 5712 5713 5715
5746 5745 5743 5741 5739 5738 5737 5735 5734 5733 5731 5730 5728 5727 5725 5724 5723 5721 5720 5718 5717 5715 5714 5713 5712 5711 5711 5710 5709 5708 5707 5706 5705 5704 5703 5702 5701 5699 5698 5697 5696 5695 5693 5692 5692 5692 5692 5691 5692 5693 5695 5695 5696 5697 5698 5699 5700 5701 5703 5705 5707 5708 5709
5742 5740 5738 5737 5735 5733 5732 5730 5729 5727 5726 5725 5723 5721 5720 5718 5717 5715 5714 5712 5711 5709 5708 5707 5705 5704 5704 5704 5703 5702 5701 5700 5699 5699 5698 5697 5696 5694 5693 5692 5691 5690 5689 5688 5687 5687 5687 5686 5687 5687 5688 5689 5690 5691 5692 5693 5694 5696 5697 5699 5702 5703 5704
5737 5736 5734 5732 5730 5729 5727 5726 5724 5722 5721 5719 5718 5716 5714 5712 5711 5709 5707 5706 5704 5703 5701 5700 5699 5698 5697 5696 5696 5695 5694 5693 5693 5693 5692 5691 5690 5689 5688 5687 5686 5685 5684 5683 5682 5682 5681 5681 5681 5682 5682 5683 5684 5685 5686 5687 5688 5690 5692 5694 5696 5698 5698
5733 5731 5729 5727 5726 5724 5723 5721 5719 5717 5716 5714 5712 5710 5709 5707 5705 5703 5701 5700 5698 5696 5695 5693 5692 5691 5690 5689 5688 5688 5687 5686 5686 5686 5686 5685 5684 5683 5682 5681 5680 5679 5679 5678 5677 5677 5675 5675 5675 5676 5676 5677 5678 5679 5681 5682 5683 5685 5687 5689 5690 5692 5693
5728 5726 5724 5723 5721 5719 5718 5716 5714 5713 5711 5709 5707 5705 5703 5701 5699 5697 5695 5693 5691 5690 5688 5686 5685 5683 5682 5682 5681 5680 5679 5679 5678 5677 5678 5678 5678 5677 5676 5676 5674 5673 5673 5673 5672 5671 5670 5669 5669 5669 5670 5670 5672 5673 5675 5676 5677 5678 5680 5681 5683 5685 5686
5724 5722 5720 5718 5716 5714 5713 5711 5709 5708 5706 5704 5701 5699 5697 5695 5693 5691 5689 5687 5685 5683 5681 5679 5678 5676 5675 5674 5673 5672 5671 5671 5670 5669 5669 5670 5670 5670 5670 5669 5669 5668 5667 5666 5666 5665 5664 5664 5663 5663 5664 5665 5666 5668 5669 5670 5671 5672 5673 5674 5676 5678 5680
5719 5717 5715 5713 5711 5710 5708 5706 5704 5702 5700 5698 5696 5694 5692 5689 5687 5685 5682 5680 5678 5676 5674 5672 5670 5669 5667 5666 5665 5664 5663 5663 5662 5661 5661 5661 5661 5662 5663 5662 5662 5662 5661 5660 5659 5659 5659 5658 5658 5658 5659 5659 5660 5661 5662 5664 5665 5666 5667 5668 5669 5671 5673
5715 5713 5711 5708 5706 5705 5703 5701 5699 5697 5695 5692 5690 5688 5685 5683 5681 5678 5675 5673 5670 5668 5666 5664 5662 5660 5659 5657 5656 5655 5654 5654 5653 5653 5652 5652 5652 5653 5654 5655 5654 5654 5654 5654 5653 5653 5652 5652 5653 5653 5653 5653 5654 5654 5655 5656 5658 5660 5661 5662 5663 5665 5666
5711 5708 5706 5704 5702 5700 5698 5696 5694 5692 5689 5687 5684 5681 5679 5676 5674 5671 5668 5666 5663 5660 5658 5655 5653 5651 5649 5647 5646 5645 5644 5643 5643 5643 5643 5643 5644 5644 5645 5646 5647 5647 5647 5647 5646 5646 5646 5646 5647 5647 5647 5647 5648 5648 5648 5649 5651 5653 5654 5655 5657 5658 5659
5706 5704 5702 5700 5698 5695 5693 5691 5689 5686 5684 5681 5678 5675 5672 5669 5666 5664 5661 5658 5655 5652 5649 5647 5644 5641 5639 5637 5636 5634 5633 5632 5632 5632 5632 5633 5634 5635 5635 5636 5638 5639 5639 5639 5639 5639 5639 5640 5641 5641 5642 5641 5642 5642 5643 5643 5644 5646 5648 5649 5650 5652 5653
5702 5700 5698 5696 5693 5691 5689 5686 5684 5681 5679 5676 5673 5670 5666 5663 5660 5657 5654 5651 5648 5644 5641 5638 5635 5631 5628 5626 5625 5623 5622 5621 5620 5620 5620 5621 5623 5624 5625 5626 5628 5630 5631 5631 5632 5633 5633 5634 5635 5635 5635 5636 5636 5637 5637 5638 5638 5640 5642 5643 5644 5646 5647
5698 5696 5694 5692 5689 5687 5684 5682 5679 5676 5674 5671 5668 5664 5661 5657 5654 5651 5647 5644 5640 5637 5634 5629 5625 5621 5618 5615 5613 5611 5610 5609 5608 5607 5608 5609 5610 5613 5615 5617 5618 5620 5621 5623 5624 5625 5626 5627 5628 5629 5629 5630 5631 5632 5632 5632 5633 5634 5636 5637 5638 5640 5641
5694 5692 5690 5688 5685 5683 5680 5678 5675 5672 5669 5666 5662 5659 5655 5652 5648 5644 5641 5637 5633 5629 5625 5621 5615 5611 5607 5604 5601 5599 5597 5596 5595 5595 5595 5596 5598 5600 5603 5606 5608 5610 5612 5614 5616 5617 5619 5620 5621 5622 5623 5624 5626 5626 5626 5627 5627 5628 5630 5631 5633 5634 5636
5691 5689 5686 5684 5681 5679 5676 5673 5671 5667 5664 5661 5657 5654 5650 5646 5642 5638 5634 5630 5626 5621 5617 5612 5606 5601 5597 5592 5589 5586 5584 5583 5583 5582 5582 5583 5585 5588 5591 5594 5597 5600 5602 5604 5607 5609 5611 5612 5614 5616 5617 5618 5620 5621 5621 5621 5622 5623 5624 5626 5627 5629 5631
5687 5685 5682 5680 5677 5675 5672 5669 5666 5663 5660 5656 5653 5649 5645 5641 5637 5633 5628 5624 5619 5614 5609 5604 5598 5593 5587 5582 5578 5575 5572 5571 5570 5570 5570 5571 5572 5575 5579 5582 5586 5590 5593 5595 5597 5600 5603 5605 5607 5609 5611 5612 5614 5615 5615 5615 5616 5617 5619 5621 5622 5623 5625
5683 5681 5679 5676 5673 5671 5668 5665 5662 5659 5656 5652 5649 5645 5641 5637 5633 5629 5624 5619 5614 5609 5603 5597 5591 5585 5579 5574 5569 5565 5562 5560 5559 5559 5559 5560 5561 5564 5567 5571 5575 5579 5583 5586 5588 5591 5594 5597 5599 5602 5604 5606 5608 5609 5609 5610 5611 5612 5614 5615 5617 5618 5620